Вернуться в каталог

STARLINK-5406

АктивенСвязьVLEO
NORAD 54860·PAYLOAD·🇺🇸 United States

Запущен Dec 28, 2022 с Cape Canaveral Space Force Station

Loading…

Ближайшие Пролёты (ближайшие 24 часа)

TLE

СвежийSource: CelesTrak SupGP

Эпоха: Sep 15, 2026, 03:03 UTC

1 54860C 22177AS  26258.12756944  .00056644  00000+0  20515-2 0  2580
2 54860  43.0003 131.9399 0001224 268.4445 329.4927 15.27552833    10

Отслеживайте STARLINK-5406 в реальном времени с AllMySat

Download on the App Store